Simultaneous Nadir Overpasses (SNOs) Predictions

Prediction of SNOs between NOAA-19 and METOP-C Satellite Orbit:

Table of predicted SNOs for the next 14.0 days since TLE Epoch: 10/26/2024
Index Date (NOAA-19) Time (NOAA-19) Lat,Lon (NOAA-19) SZA (NOAA-19 ) Date (METOP-C) Time (METOP-C) Lat,Lon (METOP-C) SZA (METOP-C ) Distance(km) Time Diff (sec)
1 11/04/2024 08:17:15 -48.85,-151.44 112.58 11/04/2024 08:18:22 -48.92,-151.73 112.51 22.91 67
2 11/04/2024 09:08:37 47.59, 15.26 66.42 11/04/2024 09:09:22 47.61, 15.06 66.44 15.43 45
3 11/04/2024 09:59:47 -46.86,-177.78 114.17 11/04/2024 10:00:19 -46.88,-177.92 114.15 10.94 32
4 11/04/2024 10:51:10 45.55, -11.07 64.79 11/04/2024 10:51:19 45.56, -11.10 64.81 3.05 9
5 11/04/2024 11:41:31 -47.62, 157.05 113.53 11/04/2024 11:41:28 -47.61, 157.03 113.54 2.04 3
6 11/04/2024 12:30:49 53.44, -32.94 71.25 11/04/2024 12:30:24 53.43, -32.96 71.27 1.04 25
7 11/04/2024 13:21:04 -55.82, 135.65 106.74 11/04/2024 13:20:26 -55.82, 135.65 106.72 0.24 38
8 11/04/2024 14:11:09 58.92, -55.13 75.89 11/04/2024 14:10:09 58.93, -55.10 75.94 2.22 60



Historial Predications of SNOs between NOAA-19 and METOP-C
